Volver al catálogo

STARLINK-32680

ActivoComunicacionesVLEO
NORAD 62423·PAYLOAD·🇺🇸 United States

Lanzado Dec 23, 2024 desde Cape Canaveral Space Force Station

Loading…

Próximos Pases (próximas 24 horas)

TLE

ActualizadoSource: CelesTrak SupGP

Época: Sep 14, 2026, 22:21 UTC

1 62423C 24249Q   26257.93173611 -.00014632  00000+0 -53009-3 0  2575
2 62423  43.0019 325.5072 0001968 272.9695  92.2305 15.27578239    15

Sigue STARLINK-32680 en tiempo real con AllMySat

Download on the App Store